Weather Roundup
Issued by NWS Chicago, IL

Home | Current Version | Previous Version | Graphics & Text | Print | Product List | Glossary On
Versions: 1 2 3 4 5 6 7 8 9 10 11 12 13 14 15 16 17 18 19 20 21 22 23 24 25 26 27 28 29 30 31 32 33 34 35 36 37 38 39 40 41 42 43 44 45 46 47 48 49 50
000
NZUS59 KLOT 270312
HRRLOT

CHICAGO AREA WEATHER ROUNDUP
NATIONAL WEATHER SERVICE CHICAGO/ROMEOVILLE IL
900 PM CST SUN FEB 26 2017

NOTE: "FAIR" INDICATES FEW OR NO CLOUDS BELOW 12,000 FEET WITH NO
SIGNIFICANT WEATHER AND/OR OBSTRUCTIONS TO VISIBILITY.

* THESE STATIONS ARE NOT UNDER NWS QUALITY CONTROL. THEY ALSO MAY NOT
  REPORT WEATHER SUCH AS PRECIPITATION OR FOG.

ILZ005-006-012>014-019>023-270400-
NORTHEAST ILLINOIS

CITY           SKY/WX    TMP DP  RH WIND       PRES   REMARKS
OHARE            N/A     43  29  57 SW13      30.01R
MIDWAY         MOCLDY    42  23  46 SW10      30.04R
AURORA           N/A     39  30  70 S9        30.03R
LANSING*         N/A     37  27  68 SW10      30.06R
JOLIET*        MOCLDY    40  28  60 SW7       30.06R
WAUKEGAN       MOCLDY    38  28  67 SW7       29.99R
DUPAGE AIRPORT   N/A     40  28  62 SW15      30.01R
WHEELING         N/A     42  28  57 SW12      30.01R
KANKAKEE*        N/A     32  25  73 SW8       30.09R WCI  25
MORRIS*        CLOUDY    37  27  65 SW7       30.05R
LEWIS AIRPORT* MOCLDY    39  30  70 SW12      30.04R
NORTHERLY ISL    N/A     43  23  45 S7          N/A
$$

WIZ051-052-058>065-066-070>072-270400-
SOUTHEAST WISCONSIN

CITY           SKY/WX    TMP DP  RH WIND       PRES   REMARKS
MILWAUKEE        N/A     36  23  59 SW7       29.97R
KENOSHA*         N/A     37  27  67 SW8       29.99R
RACINE*        MOCLDY    37  25  61 SW9       29.99R
WAUKESHA         N/A     32  23  69 SW7       29.97R WCI  26
WEST BEND        N/A     34  23  64 W6        29.95R WCI  29
$$

INZ001>003-010>013-019-020-270400-
NORTHWEST INDIANA

CITY           SKY/WX    TMP DP  RH WIND       PRES   REMARKS
GARY*          PTCLDY    41  21  45 SW8       30.06R
MICHIGAN CITY* NOT AVBL
RENSSELAER*    NOT AVBL
VALPARAISO       N/A     38  23  55 SW10      30.07R
$$

LMZ740>746-270400-
SOUTHERN LAKE MICHIGAN

STATION/POSITION TIME  SKY/WX   TEMP WIND        PRES    VSBY
                                AIR  DIR/SP/G
                 (UTC)          (F)  (DEG/KT/KT) (MB)    (MI)
HARRISON CRIB    0240            45  220/ 18/ 23   N/A
BURNHAM HARBOR   0300            43  200/  9/ 17   N/A
CALUMET HARBOR   0242            41  210/  9/ 14 1016.7R
BURNS HARBOR     0240            42  220/ 17/ 20 1017.9R
MICHIGAN CITY    0240            41  190/ 17/ 20   N/A
$$

ABBREVIATIONS USED IN REMARKS
   TC - TEMPERATURE IN CELSIUS
  WCI - WIND CHILL INDEX
   HX - HEAT INDEX
  VSB - VISIBILITY
$$




USA.gov is the U.S. government's official web portal to all federal, state and local government web resources and services.